Weather History for KOWA - June, 2013

Change the Weather History Date:

Monday, June 17, 2013

  Actual Average Record
Temperature  
Mean Temperature 72 °F -  
Max Temperature 84 °F 78 °F 92 °F (1987)
Min Temperature 59 °F 56 °F 42 °F (1999)
Cooling Degree Days 6    
Growing Degree Days 22 (Base 50)    
Moisture  
Dew Point 55 °F    
Average Humidity 56    
Maximum Humidity 88    
Minimum Humidity 30    
Precipitation  
Precipitation 0.00 in - - ()
Sea Level Pressure  
Sea Level Pressure 29.94 in    
Wind  
Wind Speed 7 mph (WNW)    
Max Wind Speed 18 mph    
Max Gust Speed 26 mph    
Visibility 10 miles    
Events      
Averages and records for this station are not official NWS values.
T = Trace of Precipitation, MM = Missing Value Source: NWS Daily Summary

Daily Weather History Graph

Daily Weather History Graph

Search for Another Location

Airport or City:

Trip Planner

Search our weather history database for the weather conditions in past years. The results will help you decide how hot, cold, wet, or windy it might be!

Date:

Astronomy

Jun. 17, 2013 Rise Set
Actual Time 5:29 AM CDT 8:58 PM CDT
Civil Twilight 4:52 AM CDT 9:35 PM CDT
Nautical Twilight 4:04 AM CDT 10:23 PM CDT
Astronomical Twilight 3:03 AM CDT 11:25 PM CDT
Moon 2:27 PM CDT (6/17) 1:17 AM CDT (6/17)
Length of Visible Light 16h 42m
Length of Day
15h 29m
First Quarter, 60% of the Moon is Illuminated
Jun 17
First Quarter
Jun 23
Full
Jun 29
Last Quarter
Jul 8
New
Jul 15
First Quarter

Hourly Weather History & Observations

Time (CDT) Temp. Heat Index Dew Point Humidity Pressure Visibility Wind Dir Wind Speed Gust Speed Precip Events Conditions
12:14 AM 66.2 °F - 55.4 °F 68% 29.92 in 10.0 mi South 8.1 mph - N/A   Clear
12:34 AM 68.0 °F - 55.4 °F 64% 29.93 in 10.0 mi South 9.2 mph - N/A   Clear
12:54 AM 68.0 °F - 55.4 °F 64% 29.92 in 10.0 mi South 6.9 mph - N/A   Clear
1:14 AM 66.2 °F - 55.4 °F 68% 29.91 in 10.0 mi South 5.8 mph - N/A   Clear
1:34 AM 64.4 °F - 55.4 °F 73% 29.91 in 10.0 mi South 8.1 mph - N/A   Clear
1:54 AM 64.4 °F - 55.4 °F 73% 29.91 in 10.0 mi South 10.4 mph - N/A   Clear
2:14 AM 64.4 °F - 55.4 °F 73% 29.91 in 10.0 mi SSW 9.2 mph - N/A   Clear
2:34 AM 66.2 °F - 55.4 °F 68% 29.92 in 10.0 mi SW 6.9 mph - N/A   Clear
2:54 AM 64.4 °F - 55.4 °F 73% 29.92 in 10.0 mi SW 5.8 mph - N/A   Clear
3:14 AM 64.4 °F - 55.4 °F 73% 29.91 in 10.0 mi WSW 4.6 mph - N/A   Clear
3:34 AM 64.4 °F - 55.4 °F 73% 29.91 in 10.0 mi WSW 3.5 mph - N/A   Clear
3:54 AM 64.4 °F - 55.4 °F 73% 29.91 in 10.0 mi WSW 3.5 mph - N/A   Clear
4:14 AM 62.6 °F - 55.4 °F 77% 29.91 in 10.0 mi WSW 4.6 mph - N/A   Clear
4:34 AM 62.6 °F - 55.4 °F 77% 29.91 in 10.0 mi Calm Calm - N/A   Clear
4:54 AM 62.6 °F - 55.4 °F 77% 29.91 in 10.0 mi Calm Calm - N/A   Clear
5:14 AM 60.8 °F - 55.4 °F 82% 29.91 in 10.0 mi Calm Calm - N/A   Clear
5:34 AM 59.0 °F - 55.4 °F 88% 29.92 in 10.0 mi Calm Calm - N/A   Clear
5:54 AM 60.8 °F - 55.4 °F 82% 29.91 in 10.0 mi Calm Calm - N/A   Clear
6:14 AM 60.8 °F - 55.4 °F 82% 29.92 in 10.0 mi Calm Calm - N/A   Clear
6:34 AM 62.6 °F - 57.2 °F 82% 29.93 in 10.0 mi Calm Calm - N/A   Clear
6:54 AM 64.4 °F - 57.2 °F 77% 29.94 in 10.0 mi Calm Calm - N/A   Clear
7:14 AM 66.2 °F - 57.2 °F 73% 29.94 in 10.0 mi Calm Calm - N/A   Clear
7:34 AM 66.2 °F - 57.2 °F 73% 29.94 in 10.0 mi West 3.5 mph - N/A   Clear
7:54 AM 68.0 °F - 57.2 °F 68% 29.95 in 10.0 mi WNW 4.6 mph - N/A   Clear
8:14 AM 69.8 °F - 57.2 °F 64% 29.96 in 10.0 mi Calm Calm - N/A   Clear
8:34 AM 71.6 °F - 59.0 °F 64% 29.96 in 10.0 mi West 4.6 mph - N/A   Clear
8:54 AM 73.4 °F - 59.0 °F 61% 29.96 in 10.0 mi West 4.6 mph - N/A   Clear
9:14 AM 73.4 °F - 59.0 °F 61% 29.96 in 10.0 mi West 3.5 mph - N/A   Clear
9:34 AM 75.2 °F - 57.2 °F 53% 29.96 in 10.0 mi WSW 3.5 mph - N/A   Clear
9:54 AM 75.2 °F - 55.4 °F 50% 29.96 in 10.0 mi NNW 3.5 mph - N/A   Clear
10:14 AM 77.0 °F - 53.6 °F 44% 29.96 in 10.0 mi WSW 3.5 mph - N/A   Scattered Clouds
10:34 AM 78.8 °F - 53.6 °F 42% 29.97 in 10.0 mi West 9.2 mph - N/A   Mostly Cloudy
10:54 AM 78.8 °F - 51.8 °F 39% 29.98 in 10.0 mi West 6.9 mph - N/A   Scattered Clouds
11:14 AM 78.8 °F - 51.8 °F 39% 29.97 in 10.0 mi WSW 9.2 mph - N/A   Clear
11:34 AM 78.8 °F - 51.8 °F 39% 29.97 in 10.0 mi WSW 10.4 mph - N/A   Clear
11:54 AM 80.6 °F - 51.8 °F 37% 29.98 in 10.0 mi West 16.1 mph 20.7 mph N/A   Clear
12:14 PM 80.6 °F 80.3 °F 53.6 °F 39% 29.98 in 10.0 mi West 12.7 mph 17.3 mph N/A   Scattered Clouds
12:34 PM 80.6 °F 80.3 °F 53.6 °F 39% 29.98 in 10.0 mi WNW 9.2 mph 17.3 mph N/A   Mostly Cloudy
12:54 PM 80.6 °F 80.3 °F 53.6 °F 39% 29.97 in 10.0 mi West 10.4 mph - N/A   Scattered Clouds
1:15 PM 80.6 °F 80.3 °F 53.6 °F 39% 29.97 in 10.0 mi WNW 13.8 mph 18.4 mph N/A   Scattered Clouds
1:34 PM 80.6 °F 80.3 °F 53.6 °F 39% 29.97 in 10.0 mi West 11.5 mph 18.4 mph N/A   Mostly Cloudy
1:54 PM 80.6 °F - 51.8 °F 37% 29.96 in 10.0 mi WNW 12.7 mph 19.6 mph N/A   Scattered Clouds
2:14 PM 82.4 °F - 51.8 °F 35% 29.96 in 10.0 mi WNW 10.4 mph 18.4 mph N/A   Scattered Clouds
2:34 PM 82.4 °F - 51.8 °F 35% 29.95 in 10.0 mi West 8.1 mph 21.9 mph N/A   Scattered Clouds
2:54 PM 82.4 °F - 51.8 °F 35% 29.95 in 10.0 mi WNW 13.8 mph 19.6 mph N/A   Scattered Clouds
3:14 PM 82.4 °F - 51.8 °F 35% 29.95 in 10.0 mi WNW 17.3 mph 20.7 mph N/A   Scattered Clouds
3:34 PM 82.4 °F - 48.2 °F 30% 29.94 in 10.0 mi West 15.0 mph 26.5 mph N/A   Scattered Clouds
3:54 PM 84.2 °F - 50.0 °F 30% 29.94 in 10.0 mi WNW 15.0 mph 20.7 mph N/A   Clear
4:14 PM 80.6 °F - 51.8 °F 37% 29.94 in 10.0 mi WNW 11.5 mph - N/A   Scattered Clouds
4:34 PM 82.4 °F - 51.8 °F 35% 29.94 in 10.0 mi West 18.4 mph 21.9 mph N/A   Scattered Clouds
4:54 PM 80.6 °F 80.3 °F 53.6 °F 39% 29.94 in 10.0 mi NW 12.7 mph - N/A   Mostly Cloudy
5:14 PM 82.4 °F - 51.8 °F 35% 29.93 in 10.0 mi WNW 12.7 mph 16.1 mph N/A   Scattered Clouds
5:34 PM 80.6 °F - 50.0 °F 34% 29.93 in 10.0 mi WNW 13.8 mph 17.3 mph N/A   Scattered Clouds
5:54 PM 80.6 °F - 51.8 °F 37% 29.93 in 10.0 mi NW 15.0 mph 18.4 mph N/A   Scattered Clouds
6:14 PM 78.8 °F - 51.8 °F 39% 29.92 in 10.0 mi NW 11.5 mph - N/A   Clear
6:34 PM 78.8 °F - 51.8 °F 39% 29.92 in 10.0 mi NW 9.2 mph 17.3 mph N/A   Clear
6:54 PM 78.8 °F - 51.8 °F 39% 29.92 in 10.0 mi NW 9.2 mph - N/A   Scattered Clouds
7:14 PM 78.8 °F - 53.6 °F 42% 29.92 in 10.0 mi NNW 8.1 mph - N/A   Clear
7:34 PM 78.8 °F - 55.4 °F 44% 29.92 in 10.0 mi NNW 6.9 mph - N/A   Clear
7:54 PM 78.8 °F - 53.6 °F 42% 29.92 in 10.0 mi NNW 9.2 mph - N/A   Clear
8:14 PM 77.0 °F - 53.6 °F 44% 29.92 in 10.0 mi NNW 8.1 mph - N/A   Clear
8:34 PM 75.2 °F - 55.4 °F 50% 29.93 in 10.0 mi NNE 8.1 mph - N/A   Clear
8:54 PM 73.4 °F - 57.2 °F 57% 29.94 in 10.0 mi NNE 9.2 mph - N/A   Clear
9:14 PM 71.6 °F - 57.2 °F 60% 29.95 in 10.0 mi NNE 8.1 mph - N/A   Clear
9:34 PM 71.6 °F - 57.2 °F 60% 29.95 in 10.0 mi NE 6.9 mph - N/A   Clear
9:54 PM 69.8 °F - 57.2 °F 64% 29.97 in 10.0 mi NE 5.8 mph - N/A   Clear
10:14 PM 69.8 °F - 57.2 °F 64% 29.98 in 10.0 mi NE 4.6 mph - N/A   Clear
10:34 PM 68.0 °F - 57.2 °F 68% 29.99 in 10.0 mi NNE 4.6 mph - N/A   Scattered Clouds
10:54 PM 68.0 °F - 57.2 °F 68% 29.99 in 10.0 mi NNE 4.6 mph - N/A   Scattered Clouds
11:14 PM 68.0 °F - 57.2 °F 68% 29.99 in 10.0 mi NE 3.5 mph - N/A   Mostly Cloudy
11:34 PM 66.2 °F - 57.2 °F 73% 29.99 in 10.0 mi NNE 4.6 mph - N/A   Scattered Clouds
11:54 PM 66.2 °F - 59.0 °F 78% 29.99 in 10.0 mi NNE 5.8 mph - N/A   Mostly Cloudy